Flag for Central African Republic Weather past 2 weeks in Bimbo, Central African Republic

Now
84 °F

Thunderstorms. Scattered clouds.


Feels Like: 91 °F
Forecast: 73 / 96 °F
Wind: 7 mph from South

Location: Bangui Airport

Current Time: Apr 1, 2015 at 4:08:31 PM

Latest Report: Apr 1, 2015 at 3:00 PM


Visibility: N/A

Pressure: 29.74 "Hg

Humidity: 70%

Dew point: 73 °F

Location of BimboLocation

Historic Weather in Bimbo — Graph

°F

Bimbo temperature yesterday

Maximum temperature yesterday: 90 °F (at 3:00 PM)
Minimum temperature yesterday: 70 °F (at 1:00 AM)
Average temperature yesterday: 78 °F

Past Weeks' High & Low Weather Summary

 TemperatureHumidityPressure
High100 °F (Mar 26, 1:00 PM)100% (Mar 18, 5:00 AM)30.01 "Hg (Mar 18, 5:00 AM)
Low68 °F (Mar 28, 6:00 AM)40% (Mar 26, 1:00 PM)29.68 "Hg (Mar 17, 3:00 PM)
Average81 °F79%29.82 "Hg
* Reported Mar 17 2:00 PM — Apr 1 2:00 PM, Bimbo, Weather by CustomWeather, © 2015

Note: Actual official high and low records may vary slightly from our data, if they occured in-between our weather recording intervals... More about our weather records

Advertising

Bimbo weather history for previous 24 hours

 ConditionsComfort  
Time TempWeatherWind HumidityBarometerVisibility
2:00 PM
Wed, Apr 1
93 °FScattered clouds.3 mph53%29.77 "HgN/A
12:00 PM93 °FPartly sunny.7 mph53%29.86 "HgN/A
11:00 AM90 °FScattered clouds.6 mph55%29.89 "HgN/A
10:00 AM88 °FPassing clouds.3 mph66%29.92 "HgN/A
9:00 AM84 °FSunny.7 mph74%29.92 "Hg10 mi
8:00 AM79 °FClear.No wind89%29.92 "Hg5 mi
7:00 AM73 °FPartly sunny.No wind100%29.89 "HgN/A
6:00 AM72 °FPartly sunny.No wind100%29.86 "HgN/A
5:00 AM73 °FClear.No wind94%29.86 "Hg10 mi
4:00 AM73 °FClear.2 mph100%29.86 "Hg10 mi
2:00 AM75 °FClear.2 mph94%29.86 "Hg10 mi
1:00 AM75 °FClear.No wind100%29.86 "Hg10 mi
12:00 AM75 °FClear.No wind100%29.89 "Hg10 mi
11:00 PM
Tue, Mar 31
75 °FClear.2 mph100%29.89 "Hg10 mi
9:00 PM79 °FClear.No wind89%29.86 "Hg10 mi
8:00 PM79 °FClear.2 mph89%29.86 "Hg10 mi
7:00 PM82 °FPassing clouds.2 mph74%29.83 "HgN/A
6:00 PM84 °FPassing clouds.2 mph70%29.80 "HgN/A
5:00 PM88 °FPartly sunny.5 mph59%29.80 "HgN/A
4:00 PM90 °FPartly sunny.1 mph55%29.80 "HgN/A
Weather by CustomWeather, © 2015

See weather overviewHow to use our weather pages